When you browse on this site, cookies collect data to enhance your experience and personalize the content and advertising you see.
Visit our Privacy Policy to learn more. By continuing to use the site, you agree to this use of cookies and data.
  • En España
  • Lista de países
  • Para 7 días
  • Temperatura del agua
  • El tiempo en el mapa
  • Informadores
  • user-avatar
    Iniciar sesión

    Tiempo cada hora Mendoza

    Hoy, 7 Diciembre, Sábado

    Tiempo Temperatura Precipitaciones Viento Presión Humedad
    00:00 +26°C° 0 mm 3 mps 697 mmHg 28%
    01:00 +25°C° 0 mm 3 mps 697 mmHg 30%
    02:00 +24°C° 0 mm 3 mps 697 mmHg 30%
    03:00 +24°C° 0 mm 3 mps 696 mmHg 30%
    04:00 +23°C° 0 mm 4 mps 696 mmHg 31%
    05:00 +25°C° 0 mm 4 mps 696 mmHg 29%
    06:00 +26°C° 0 mm 5 mps 697 mmHg 26%
    07:00 +27°C° 0 mm 5 mps 697 mmHg 24%
    08:00 +28°C° 0 mm 5 mps 697 mmHg 23%
    09:00 +29°C° 0 mm 5 mps 697 mmHg 22%
    10:00 +32°C° 0 mm 6 mps 696 mmHg 21%
    11:00 +32°C° 0 mm 5 mps 696 mmHg 20%
    12:00 +33°C° 0 mm 4 mps 696 mmHg 19%
    13:00 +34°C° 0 mm 3 mps 696 mmHg 18%
    14:00 +34°C° 0 mm 3 mps 695 mmHg 17%
    15:00 +34°C° 0 mm 3 mps 695 mmHg 16%
    16:00 +34°C° 0 mm 3 mps 695 mmHg 16%
    17:00 +32°C° 0 mm 2 mps 695 mmHg 18%
    18:00 +31°C° 0 mm 2 mps 695 mmHg 19%
    19:00 +30°C° 0 mm 2 mps 696 mmHg 21%
    20:00 +29°C° 0 mm 3 mps 696 mmHg 26%
    21:00 +28°C° 0 mm 3 mps 696 mmHg 30%
    22:00 +27°C° 0 mm 4 mps 696 mmHg 34%
    23:00 +26°C° 0 mm 4 mps 696 mmHg 35%

    Mañana, 8 Diciembre, Domingo

    Tiempo Temperatura Precipitaciones Viento Presión Humedad
    00:00 +26°C° 0 mm 4 mps 696 mmHg 35%
    01:00 +26°C° 0 mm 4 mps 696 mmHg 35%
    02:00 +25°C° 0 mm 3 mps 696 mmHg 36%
    03:00 +25°C° 0 mm 3 mps 696 mmHg 36%
    04:00 +25°C° 0 mm 3 mps 696 mmHg 37%
    05:00 +26°C° 0 mm 3 mps 697 mmHg 35%
    06:00 +27°C° 0 mm 4 mps 697 mmHg 33%
    07:00 +28°C° 0 mm 4 mps 698 mmHg 31%
    08:00 +30°C° 0 mm 4 mps 698 mmHg 28%
    09:00 +32°C° 0 mm 4 mps 698 mmHg 26%
    10:00 +33°C° 0 mm 4 mps 698 mmHg 23%
    11:00 +34°C° 0 mm 4 mps 698 mmHg 21%
    12:00 +34°C° 0 mm 3 mps 697 mmHg 20%
    13:00 +35°C° 0 mm 3 mps 697 mmHg 19%
    14:00 +35°C° 0 mm 3 mps 697 mmHg 19%
    15:00 +35°C° 0 mm 3 mps 696 mmHg 20%
    16:00 +35°C° 0 mm 3 mps 696 mmHg 20%
    17:00 +33°C° 0.3 mm 3 mps 696 mmHg 24%
    18:00 +30°C° 0.3 mm 4 mps 696 mmHg 28%
    19:00 +29°C° 0.3 mm 5 mps 696 mmHg 32%
    20:00 +29°C° 0 mm 4 mps 697 mmHg 32%
    21:00 +28°C° 0 mm 2 mps 697 mmHg 31%
    22:00 +28°C° 0 mm 1 mps 697 mmHg 30%
    23:00 +27°C° 0 mm 2 mps 697 mmHg 34%

    Pasado mañana, 9 Diciembre, Lunes

    Tiempo Temperatura Precipitaciones Viento Presión Humedad
    00:00 +27°C° 0 mm 3 mps 697 mmHg 37%
    01:00 +26°C° 0 mm 3 mps 696 mmHg 40%
    02:00 +25°C° 0 mm 3 mps 696 mmHg 41%
    03:00 +25°C° 0 mm 2 mps 696 mmHg 41%
    04:00 +25°C° 0 mm 1 mps 696 mmHg 42%
    05:00 +26°C° 0 mm 1 mps 697 mmHg 38%
    06:00 +28°C° 0 mm 2 mps 697 mmHg 35%
    07:00 +29°C° 0 mm 2 mps 697 mmHg 31%
    08:00 +31°C° 0 mm 2 mps 697 mmHg 28%
    09:00 +34°C° 0 mm 3 mps 697 mmHg 24%
    10:00 +36°C° 0 mm 4 mps 697 mmHg 21%
    11:00 +37°C° 0 mm 5 mps 697 mmHg 19%
    12:00 +38°C° 0 mm 6 mps 697 mmHg 17%
    13:00 +39°C° 0 mm 6 mps 696 mmHg 16%
    14:00 +38°C° 0.3 mm 6 mps 696 mmHg 20%
    15:00 +36°C° 0.3 mm 7 mps 695 mmHg 25%
    16:00 +35°C° 0.3 mm 7 mps 695 mmHg 29%
    17:00 +34°C° 0.1 mm 6 mps 695 mmHg 29%
    18:00 +33°C° 0.1 mm 5 mps 695 mmHg 29%
    19:00 +32°C° 0.1 mm 4 mps 696 mmHg 29%
    20:00 +30°C° 0 mm 4 mps 696 mmHg 30%
    21:00 +29°C° 0 mm 3 mps 696 mmHg 31%
    22:00 +28°C° 0 mm 2 mps 696 mmHg 32%
    23:00 +28°C° 0 mm 2 mps 696 mmHg 32%

    10 Diciembre, Martes

    Tiempo Temperatura Precipitaciones Viento Presión Humedad
    00:00 +28°C° 0 mm 1 mps 696 mmHg 33%
    01:00 +27°C° 0 mm 1 mps 696 mmHg 33%
    02:00 +27°C° 0 mm 2 mps 696 mmHg 32%
    03:00 +27°C° 0 mm 3 mps 696 mmHg 31%
    04:00 +27°C° 0 mm 4 mps 696 mmHg 30%
    05:00 +28°C° 0 mm 5 mps 697 mmHg 27%
    06:00 +29°C° 0 mm 6 mps 697 mmHg 24%
    07:00 +29°C° 0 mm 7 mps 698 mmHg 21%
    08:00 +30°C° 0 mm 7 mps 698 mmHg 20%
    09:00 +32°C° 0 mm 6 mps 698 mmHg 18%
    10:00 +33°C° 0 mm 6 mps 698 mmHg 17%
    11:00 +34°C° 0 mm 5 mps 697 mmHg 17%
    12:00 +35°C° 0 mm 4 mps 696 mmHg 17%
    13:00 +35°C° 0 mm 3 mps 696 mmHg 17%
    14:00 +36°C° 0 mm 3 mps 695 mmHg 17%
    15:00 +36°C° 0 mm 3 mps 695 mmHg 17%
    16:00 +37°C° 0 mm 2 mps 695 mmHg 17%
    17:00 +36°C° 0 mm 2 mps 695 mmHg 19%
    18:00 +35°C° 0 mm 2 mps 695 mmHg 20%
    19:00 +34°C° 0 mm 2 mps 695 mmHg 22%
    20:00 +33°C° 0 mm 3 mps 696 mmHg 23%
    21:00 +31°C° 0 mm 3 mps 696 mmHg 24%
    22:00 +30°C° 0 mm 3 mps 696 mmHg 25%
    23:00 +29°C° 0 mm 3 mps 696 mmHg 27%

    11 Diciembre, Miércoles

    Tiempo Temperatura Precipitaciones Viento Presión Humedad
    00:00 +28°C° 0 mm 3 mps 695 mmHg 28%
    01:00 +28°C° 0 mm 3 mps 695 mmHg 29%
    02:00 +27°C° 0 mm 3 mps 695 mmHg 31%
    03:00 +26°C° 0 mm 4 mps 695 mmHg 32%
    04:00 +26°C° 0 mm 5 mps 695 mmHg 33%
    05:00 +27°C° 0 mm 5 mps 695 mmHg 32%
    06:00 +27°C° 0 mm 6 mps 695 mmHg 31%
    07:00 +28°C° 0 mm 7 mps 696 mmHg 29%
    08:00 +29°C° 0 mm 6 mps 696 mmHg 27%
    09:00 +32°C° 0 mm 6 mps 696 mmHg 24%
    10:00 +33°C° 0 mm 5 mps 696 mmHg 22%
    11:00 +34°C° 0 mm 5 mps 695 mmHg 20%
    12:00 +34°C° 0 mm 5 mps 695 mmHg 19%
    13:00 +35°C° 0 mm 5 mps 695 mmHg 18%
    14:00 +35°C° 0 mm 5 mps 694 mmHg 17%
    15:00 +36°C° 0 mm 5 mps 694 mmHg 16%
    16:00 +36°C° 0 mm 5 mps 694 mmHg 16%
    17:00 +34°C° 0 mm 4 mps 694 mmHg 17%
    18:00 +33°C° 0 mm 4 mps 695 mmHg 18%
    19:00 +31°C° 0 mm 3 mps 695 mmHg 19%
    20:00 +30°C° 0 mm 3 mps 696 mmHg 20%
    21:00 +29°C° 0 mm 3 mps 696 mmHg 21%
    22:00 +28°C° 0 mm 3 mps 697 mmHg 21%
    23:00 +27°C° 0 mm 3 mps 697 mmHg 22%

    12 Diciembre, Jueves

    Tiempo Temperatura Precipitaciones Viento Presión Humedad
    00:00 +26°C° 0 mm 3 mps 697 mmHg 23%
    01:00 +26°C° 0 mm 3 mps 697 mmHg 23%
    02:00 +24°C° 0 mm 3 mps 698 mmHg 23%
    03:00 +22°C° 0 mm 3 mps 698 mmHg 23%
    04:00 +20°C° 0 mm 3 mps 698 mmHg 23%
    05:00 +21°C° 0 mm 3 mps 698 mmHg 21%
    06:00 +21°C° 0 mm 4 mps 699 mmHg 19%
    07:00 +22°C° 0 mm 4 mps 699 mmHg 17%
    08:00 +22°C° 0 mm 4 mps 699 mmHg 16%
    09:00 +23°C° 0 mm 4 mps 699 mmHg 15%
    10:00 +25°C° 0 mm 4 mps 699 mmHg 15%
    11:00 +26°C° 0 mm 4 mps 698 mmHg 14%
    12:00 +27°C° 0 mm 4 mps 698 mmHg 14%
    13:00 +28°C° 0 mm 4 mps 697 mmHg 13%
    14:00 +28°C° 0 mm 4 mps 697 mmHg 13%
    15:00 +28°C° 0 mm 4 mps 696 mmHg 13%
    16:00 +29°C° 0 mm 3 mps 696 mmHg 13%
    17:00 +28°C° 0 mm 3 mps 696 mmHg 14%
    18:00 +27°C° 0 mm 3 mps 696 mmHg 15%
    19:00 +26°C° 0 mm 3 mps 697 mmHg 17%
    20:00 +25°C° 0 mm 2 mps 697 mmHg 18%
    21:00 +24°C° 0 mm 2 mps 697 mmHg 20%
    22:00 +23°C° 0 mm 2 mps 697 mmHg 22%
    23:00 +21°C° 0 mm 2 mps 696 mmHg 25%
    Mostrar más